Location: �terpigny
(49.8910°N, 2.9249°E)
Time: 22:37:07
(UTC+00:00)

Cosmos 1908 - Pass Details

Date: 30 May 2022
Orbit: 505 x 524 km, 82.5° (Epoch: 01 July)

Event Time Altitude Azimuth Distance (km) Brightness Sun altitude
Rises 00:19:47 0° 339° (NNW) 2,622 7.8 -18.0°
Reaches altitude 10° 00:22:10 10° 325° (NW) 1,731 6.5 -17.9°
Maximum altitude 00:25:16 24° 271° (W) 1,079 4.7 -17.8°
Enters shadow 00:26:02 23° 251° (WSW) 1,130 4.6 -17.8°
